Year,Month,Day,Hour,Minute,Value (Times are PST for temperature in C)
2009,04,04,00,00,0.90
2009,04,04,00,01,0.90
2009,04,04,00,02,0.90
2009,04,04,00,03,0.90
2009,04,04,00,04,0.90
2009,04,04,00,05,0.90
2009,04,04,00,06,0.90
2009,04,04,00,07,0.90
2009,04,04,00,08,0.80
2009,04,04,00,09,0.80
2009,04,04,00,10,0.80
2009,04,04,00,11,0.70
2009,04,04,00,12,0.70
2009,04,04,00,13,0.70
2009,04,04,00,14,0.60
2009,04,04,00,15,0.60
2009,04,04,00,16,0.60
2009,04,04,00,17,0.60
2009,04,04,00,18,0.60
2009,04,04,00,19,0.60
2009,04,04,00,20,0.60
2009,04,04,00,21,0.60
2009,04,04,00,22,0.60
2009,04,04,00,23,0.60
2009,04,04,00,24,0.60
2009,04,04,00,25,0.60
2009,04,04,00,26,0.60
2009,04,04,00,27,0.60
2009,04,04,00,28,0.60
2009,04,04,00,29,0.60
2009,04,04,00,30,0.60
2009,04,04,00,31,0.60
2009,04,04,00,32,0.60
2009,04,04,00,33,0.60
2009,04,04,00,34,0.60
2009,04,04,00,35,0.60
2009,04,04,00,36,0.60
2009,04,04,00,37,0.60
2009,04,04,00,38,0.60
2009,04,04,00,39,0.60
2009,04,04,00,40,0.60
2009,04,04,00,41,0.60
2009,04,04,00,42,0.60
2009,04,04,00,43,0.60
2009,04,04,00,44,0.60
2009,04,04,00,45,0.60
2009,04,04,00,46,0.60
2009,04,04,00,47,0.60
2009,04,04,00,48,0.60
2009,04,04,00,49,0.60
2009,04,04,00,50,0.60
2009,04,04,00,51,0.60
2009,04,04,00,52,0.60
2009,04,04,00,53,0.50
2009,04,04,00,54,0.50
2009,04,04,00,55,0.50
2009,04,04,00,56,0.50
2009,04,04,00,57,0.40
2009,04,04,00,58,0.40
2009,04,04,00,59,0.40
2009,04,04,01,00,0.40
2009,04,04,01,01,0.40
2009,04,04,01,02,0.40
2009,04,04,01,03,0.40
2009,04,04,01,04,0.40
2009,04,04,01,05,0.40
2009,04,04,01,06,0.40
2009,04,04,01,07,0.40
2009,04,04,01,08,0.40
2009,04,04,01,09,0.40
2009,04,04,01,10,0.40
2009,04,04,01,11,0.40
2009,04,04,01,12,0.40
2009,04,04,01,13,0.40
2009,04,04,01,14,0.40
2009,04,04,01,15,0.40
2009,04,04,01,16,0.40
2009,04,04,01,17,0.40
2009,04,04,01,18,0.40
2009,04,04,01,19,0.40
2009,04,04,01,20,0.40
2009,04,04,01,21,0.40
2009,04,04,01,22,0.40
2009,04,04,01,23,0.40
2009,04,04,01,24,0.40
2009,04,04,01,25,0.40
2009,04,04,01,26,0.40
2009,04,04,01,27,0.40
2009,04,04,01,28,0.40
2009,04,04,01,29,0.40
2009,04,04,01,30,0.40
2009,04,04,01,31,0.40
2009,04,04,01,32,0.40
2009,04,04,01,33,0.40
2009,04,04,01,34,0.40
2009,04,04,01,35,0.40
2009,04,04,01,36,0.40
2009,04,04,01,37,0.40
2009,04,04,01,38,0.40
2009,04,04,01,39,0.40
2009,04,04,01,40,0.40
2009,04,04,01,41,0.40
2009,04,04,01,42,0.40
2009,04,04,01,43,0.40
2009,04,04,01,44,0.40
2009,04,04,01,45,0.40
2009,04,04,01,46,0.40
2009,04,04,01,47,0.40
2009,04,04,01,48,0.30
2009,04,04,01,49,0.30
2009,04,04,01,50,0.30
2009,04,04,01,51,0.30
2009,04,04,01,52,0.30
2009,04,04,01,53,0.30
2009,04,04,01,54,0.30
2009,04,04,01,55,0.30
2009,04,04,01,56,0.30
2009,04,04,01,57,0.30
2009,04,04,01,58,0.40
2009,04,04,01,59,0.40
2009,04,04,02,00,0.40
2009,04,04,02,01,0.40
2009,04,04,02,02,0.40
2009,04,04,02,03,0.40
2009,04,04,02,04,0.40
2009,04,04,02,05,0.40
2009,04,04,02,06,0.40
2009,04,04,02,07,0.40
2009,04,04,02,08,0.50
2009,04,04,02,09,0.40
2009,04,04,02,10,0.40
2009,04,04,02,11,0.40
2009,04,04,02,12,0.40
2009,04,04,02,13,0.40
2009,04,04,02,14,0.40
2009,04,04,02,15,0.40
2009,04,04,02,16,0.40
2009,04,04,02,17,0.30
2009,04,04,02,18,0.30
2009,04,04,02,19,0.30
2009,04,04,02,20,0.30
2009,04,04,02,21,0.20
2009,04,04,02,22,0.20
2009,04,04,02,23,0.20
2009,04,04,02,24,0.20
2009,04,04,02,25,0.20
2009,04,04,02,26,0.10
2009,04,04,02,27,0.10
2009,04,04,02,28,0.10
2009,04,04,02,29,0.10
2009,04,04,02,30,0.10
2009,04,04,02,31,0.10
2009,04,04,02,32,0.10
2009,04,04,02,33,0.10
2009,04,04,02,34,0.10
2009,04,04,02,35,0.10
2009,04,04,02,36,0.10
2009,04,04,02,37,0.10
2009,04,04,02,38,0.10
2009,04,04,02,39,0.10
2009,04,04,02,40,0.10
2009,04,04,02,41,0.10
2009,04,04,02,42,0.10
2009,04,04,02,43,0.10
2009,04,04,02,44,0.10
2009,04,04,02,45,0.10
2009,04,04,02,46,0.10
2009,04,04,02,47,0.10
2009,04,04,02,48,0.10
2009,04,04,02,49,0.10
2009,04,04,02,50,0.10
2009,04,04,02,51,0.10
2009,04,04,02,52,0.10
2009,04,04,02,53,0.10
2009,04,04,02,54,0.10
2009,04,04,02,55,0.10
2009,04,04,02,56,0.10
2009,04,04,02,57,0.10
2009,04,04,02,58,0.10
2009,04,04,02,59,0.10
2009,04,04,03,00,0.10
2009,04,04,03,01,0.10
2009,04,04,03,02,0.10
2009,04,04,03,03,0.10
2009,04,04,03,04,0.10
2009,04,04,03,05,0.10
2009,04,04,03,06,0.10
2009,04,04,03,07,0.10
2009,04,04,03,08,0.00
2009,04,04,03,09,0.00
2009,04,04,03,10,0.00
2009,04,04,03,11,0.00
2009,04,04,03,12,-0.10
2009,04,04,03,13,-0.10
2009,04,04,03,14,-0.10
2009,04,04,03,15,-0.10
2009,04,04,03,16,-0.10
2009,04,04,03,17,-0.10
2009,04,04,03,18,-0.10
2009,04,04,03,19,-0.10
2009,04,04,03,20,-0.10
2009,04,04,03,21,-0.10
2009,04,04,03,22,-0.10
2009,04,04,03,23,-0.10
2009,04,04,03,24,0.00
2009,04,04,03,25,0.00
2009,04,04,03,26,0.00
2009,04,04,03,27,0.00
2009,04,04,03,28,0.00
2009,04,04,03,29,0.00
2009,04,04,03,30,0.10
2009,04,04,03,31,0.10
2009,04,04,03,32,0.10
2009,04,04,03,33,0.10
2009,04,04,03,34,0.10
2009,04,04,03,35,0.10
2009,04,04,03,36,0.10
2009,04,04,03,37,0.20
2009,04,04,03,38,0.20
2009,04,04,03,39,0.20
2009,04,04,03,40,0.20
2009,04,04,03,41,0.20
2009,04,04,03,42,0.30
2009,04,04,03,43,0.30
2009,04,04,03,44,0.30
2009,04,04,03,45,0.20
2009,04,04,03,46,0.20
2009,04,04,03,47,0.20
2009,04,04,03,48,0.20
2009,04,04,03,49,0.20
2009,04,04,03,50,0.20
2009,04,04,03,51,0.20
2009,04,04,03,52,0.20
2009,04,04,03,53,0.20
2009,04,04,03,54,0.10
2009,04,04,03,55,0.10
2009,04,04,03,56,0.10
2009,04,04,03,57,0.10
2009,04,04,03,58,0.10
2009,04,04,03,59,0.10
2009,04,04,04,00,0.10
2009,04,04,04,01,0.10
2009,04,04,04,02,0.10
2009,04,04,04,03,0.10
2009,04,04,04,05,0.10
2009,04,04,04,06,0.10
2009,04,04,04,07,0.10
2009,04,04,04,08,0.10
2009,04,04,04,09,0.00
2009,04,04,04,10,0.00
2009,04,04,04,11,0.00
2009,04,04,04,12,0.00
2009,04,04,04,13,0.00
2009,04,04,04,14,0.00
2009,04,04,04,15,0.00
2009,04,04,04,16,0.00
2009,04,04,04,17,0.00
2009,04,04,04,18,0.00
2009,04,04,04,19,0.00
2009,04,04,04,20,0.00
2009,04,04,04,21,0.00
2009,04,04,04,22,0.00
2009,04,04,04,23,0.00
2009,04,04,04,24,0.00
2009,04,04,04,25,0.00
2009,04,04,04,26,0.00
2009,04,04,04,27,0.00
2009,04,04,04,28,0.00
2009,04,04,04,29,0.00
2009,04,04,04,30,0.00
2009,04,04,04,31,0.00
2009,04,04,04,32,-0.10
2009,04,04,04,33,-0.10
2009,04,04,04,34,-0.10
2009,04,04,04,35,-0.10
2009,04,04,04,36,-0.20
2009,04,04,04,37,-0.20
2009,04,04,04,38,-0.20
2009,04,04,04,39,-0.20
2009,04,04,04,40,-0.20
2009,04,04,04,41,-0.30
2009,04,04,04,42,-0.30
2009,04,04,04,43,-0.30
2009,04,04,04,44,-0.30
2009,04,04,04,45,-0.30
2009,04,04,04,46,-0.30
2009,04,04,04,47,-0.20
2009,04,04,04,48,-0.20
2009,04,04,04,49,-0.20
2009,04,04,04,50,-0.20
2009,04,04,04,51,-0.10
2009,04,04,04,52,-0.10
2009,04,04,04,53,-0.10
2009,04,04,04,54,-0.10
2009,04,04,04,55,-0.10
2009,04,04,04,56,-0.10
2009,04,04,04,57,-0.10
2009,04,04,04,58,-0.10
2009,04,04,04,59,-0.10
2009,04,04,05,00,-0.10
2009,04,04,05,01,0.00
2009,04,04,05,02,0.00
2009,04,04,05,03,0.00
2009,04,04,05,04,-0.10
2009,04,04,05,05,-0.10
2009,04,04,05,06,-0.10
2009,04,04,05,07,-0.10
2009,04,04,05,08,-0.10
2009,04,04,05,09,-0.20
2009,04,04,05,10,-0.20
2009,04,04,05,11,-0.20
2009,04,04,05,12,-0.20
2009,04,04,05,13,-0.20
2009,04,04,05,14,-0.20
2009,04,04,05,15,-0.20
2009,04,04,05,16,-0.20
2009,04,04,05,17,-0.20
2009,04,04,05,18,-0.20
2009,04,04,05,19,-0.20
2009,04,04,05,20,-0.20
2009,04,04,05,21,-0.20
2009,04,04,05,22,-0.20
2009,04,04,05,23,-0.30
2009,04,04,05,24,-0.30
2009,04,04,05,25,-0.30
2009,04,04,05,26,-0.30
2009,04,04,05,27,-0.40
2009,04,04,05,28,-0.40
2009,04,04,05,29,-0.40
2009,04,04,05,30,-0.40
2009,04,04,05,31,-0.50
2009,04,04,05,32,-0.50
2009,04,04,05,33,-0.50
2009,04,04,05,34,-0.50
2009,04,04,05,35,-0.50
2009,04,04,05,36,-0.50
2009,04,04,05,37,-0.50
2009,04,04,05,38,-0.50
2009,04,04,05,39,-0.50
2009,04,04,05,40,-0.50
2009,04,04,05,41,-0.50
2009,04,04,05,42,-0.50
2009,04,04,05,43,-0.50
2009,04,04,05,44,-0.60
2009,04,04,05,45,-0.60
2009,04,04,05,46,-0.60
2009,04,04,05,47,-0.60
2009,04,04,05,48,-0.60
2009,04,04,05,49,-0.60
2009,04,04,05,50,-0.50
2009,04,04,05,51,-0.50
2009,04,04,05,52,-0.50
2009,04,04,05,53,-0.40
2009,04,04,05,54,-0.40
2009,04,04,05,55,-0.40
2009,04,04,05,56,-0.40
2009,04,04,05,57,-0.40
2009,04,04,05,58,-0.40
2009,04,04,05,59,-0.40
2009,04,04,06,00,-0.40
2009,04,04,06,01,-0.40
2009,04,04,06,02,-0.30
2009,04,04,06,03,-0.30
2009,04,04,06,04,-0.30
2009,04,04,06,05,-0.30
2009,04,04,06,06,-0.30
2009,04,04,06,07,-0.30
2009,04,04,06,08,-0.30
2009,04,04,06,09,-0.30
2009,04,04,06,10,-0.30
2009,04,04,06,11,-0.30
2009,04,04,06,12,-0.30
2009,04,04,06,13,-0.30
2009,04,04,06,14,-0.30
2009,04,04,06,15,-0.30
2009,04,04,06,16,-0.30
2009,04,04,06,17,-0.30
2009,04,04,06,18,-0.30
2009,04,04,06,19,-0.30
2009,04,04,06,20,-0.40
2009,04,04,06,21,-0.40
2009,04,04,06,22,-0.40
2009,04,04,06,23,-0.40
2009,04,04,06,24,-0.40
2009,04,04,06,25,-0.40
2009,04,04,06,26,-0.40
2009,04,04,06,27,-0.40
2009,04,04,06,28,-0.40
2009,04,04,06,29,-0.40
2009,04,04,06,30,-0.50
2009,04,04,06,31,-0.50
2009,04,04,06,32,-0.50
2009,04,04,06,33,-0.50
2009,04,04,06,34,-0.50
2009,04,04,06,35,-0.50
2009,04,04,06,36,-0.50
2009,04,04,06,37,-0.50
2009,04,04,06,38,-0.50
2009,04,04,06,39,-0.50
2009,04,04,06,40,-0.50
2009,04,04,06,41,-0.50
2009,04,04,06,42,-0.50
2009,04,04,06,43,-0.50
2009,04,04,06,44,-0.50
2009,04,04,06,45,-0.50
2009,04,04,06,46,-0.50
2009,04,04,06,47,-0.50
2009,04,04,06,48,-0.50
2009,04,04,06,49,-0.50
2009,04,04,06,50,-0.50
2009,04,04,06,51,-0.50
2009,04,04,06,52,-0.50
2009,04,04,06,53,-0.60
2009,04,04,06,54,-0.60
2009,04,04,06,55,-0.60
2009,04,04,06,56,-0.60
2009,04,04,06,57,-0.60
2009,04,04,06,58,-0.60
2009,04,04,06,59,-0.60
2009,04,04,07,00,-0.70
2009,04,04,07,01,-0.70
2009,04,04,07,02,-0.70
2009,04,04,07,03,-0.70
2009,04,04,07,04,-0.70
2009,04,04,07,05,-0.70
2009,04,04,07,06,-0.70
2009,04,04,07,07,-0.70
2009,04,04,07,08,-0.70
2009,04,04,07,09,-0.70
2009,04,04,07,10,-0.70
2009,04,04,07,11,-0.70
2009,04,04,07,12,-0.70
2009,04,04,07,13,-0.70
2009,04,04,07,14,-0.60
2009,04,04,07,15,-0.60
2009,04,04,07,16,-0.60
2009,04,04,07,17,-0.60
2009,04,04,07,18,-0.60
2009,04,04,07,19,-0.60
2009,04,04,07,20,-0.60
2009,04,04,07,21,-0.50
2009,04,04,07,22,-0.40
2009,04,04,07,23,-0.40
2009,04,04,07,24,-0.40
2009,04,04,07,25,-0.30
2009,04,04,07,26,-0.30
2009,04,04,07,27,-0.30
2009,04,04,07,28,-0.30
2009,04,04,07,29,-0.30
2009,04,04,07,30,-0.20
2009,04,04,07,31,-0.20
2009,04,04,07,32,-0.20
2009,04,04,07,33,-0.20
2009,04,04,07,34,-0.20
2009,04,04,07,35,-0.10
2009,04,04,07,36,-0.10
2009,04,04,07,37,-0.10
2009,04,04,07,38,-0.10
2009,04,04,07,39,0.00
2009,04,04,07,40,0.00
2009,04,04,07,41,0.10
2009,04,04,07,42,0.10
2009,04,04,07,43,0.20
2009,04,04,07,44,0.20
2009,04,04,07,45,0.30
2009,04,04,07,46,0.30
2009,04,04,07,47,0.30
2009,04,04,07,48,0.30
2009,04,04,07,49,0.30
2009,04,04,07,50,0.40
2009,04,04,07,51,0.40
2009,04,04,07,52,0.50
2009,04,04,07,53,0.50
2009,04,04,07,54,0.60
2009,04,04,07,55,0.60
2009,04,04,07,56,0.70
2009,04,04,07,57,0.70
2009,04,04,07,58,0.80
2009,04,04,07,59,0.80
2009,04,04,08,00,0.90
2009,04,04,08,01,1.00
2009,04,04,08,02,1.00
2009,04,04,08,03,1.10
2009,04,04,08,04,1.10
2009,04,04,08,05,1.20
2009,04,04,08,06,1.30
2009,04,04,08,07,1.30
2009,04,04,08,08,1.30
2009,04,04,08,09,1.30
2009,04,04,08,10,1.40
2009,04,04,08,11,1.40
2009,04,04,08,12,1.50
2009,04,04,08,13,1.60
2009,04,04,08,14,1.60
2009,04,04,08,15,1.70
2009,04,04,08,16,1.80
2009,04,04,08,17,1.80
2009,04,04,08,18,1.90
2009,04,04,08,19,1.90
2009,04,04,08,20,2.00
2009,04,04,08,21,2.00
2009,04,04,08,22,2.10
2009,04,04,08,23,2.20
2009,04,04,08,24,2.20
2009,04,04,08,25,2.30
2009,04,04,08,26,2.30
2009,04,04,08,27,2.40
2009,04,04,08,28,2.50
2009,04,04,08,29,2.60
2009,04,04,08,30,2.70
2009,04,04,08,31,2.80
2009,04,04,08,32,2.80
2009,04,04,08,33,2.90
2009,04,04,08,34,2.90
2009,04,04,08,35,3.00
2009,04,04,08,36,3.00
2009,04,04,08,37,3.10
2009,04,04,08,38,3.10
2009,04,04,08,39,3.10
2009,04,04,08,40,3.10
2009,04,04,08,41,3.10
2009,04,04,08,42,3.10
2009,04,04,08,43,3.20
2009,04,04,08,44,3.20
2009,04,04,08,45,3.20
2009,04,04,08,46,3.20
2009,04,04,08,47,3.20
2009,04,04,08,48,3.30
2009,04,04,08,49,3.30
2009,04,04,08,50,3.40
2009,04,04,08,51,3.50
2009,04,04,08,52,3.50
2009,04,04,08,53,3.60
2009,04,04,08,54,3.60
2009,04,04,08,55,3.60
2009,04,04,08,56,3.70
2009,04,04,08,57,3.70
2009,04,04,08,58,3.70
2009,04,04,08,59,3.70
2009,04,04,09,00,3.70
2009,04,04,09,01,3.80
2009,04,04,09,02,3.80
2009,04,04,09,03,3.80
2009,04,04,09,04,3.80
2009,04,04,09,05,3.90
2009,04,04,09,06,3.90
2009,04,04,09,07,3.90
2009,04,04,09,08,4.00
2009,04,04,09,09,4.00
2009,04,04,09,10,4.10
2009,04,04,09,11,4.10
2009,04,04,09,12,4.10
2009,04,04,09,13,4.10
2009,04,04,09,14,4.20
2009,04,04,09,15,4.20
2009,04,04,09,16,4.20
2009,04,04,09,17,4.30
2009,04,04,09,18,4.40
2009,04,04,09,19,4.50
2009,04,04,09,20,4.60
2009,04,04,09,21,4.70
2009,04,04,09,22,4.80
2009,04,04,09,23,4.90
2009,04,04,09,24,5.00
2009,04,04,09,25,5.10
2009,04,04,09,26,5.10
2009,04,04,09,27,5.20
2009,04,04,09,28,5.30
2009,04,04,09,29,5.30
2009,04,04,09,30,5.30
2009,04,04,09,31,5.40
2009,04,04,09,32,5.50
2009,04,04,09,33,5.50
2009,04,04,09,34,5.60
2009,04,04,09,35,5.70
2009,04,04,09,36,5.70
2009,04,04,09,37,5.80
2009,04,04,09,38,5.90
2009,04,04,09,39,6.00
2009,04,04,09,40,6.10
2009,04,04,09,41,6.20
2009,04,04,09,42,6.30
2009,04,04,09,43,6.30
2009,04,04,09,44,6.40
2009,04,04,09,45,6.50
2009,04,04,09,46,6.50
2009,04,04,09,47,6.60
2009,04,04,09,48,6.60
2009,04,04,09,49,6.60
2009,04,04,09,50,6.60
2009,04,04,09,51,6.60
2009,04,04,09,52,6.60
2009,04,04,09,53,6.60
2009,04,04,09,54,6.60
2009,04,04,09,55,6.60
2009,04,04,09,56,6.70
2009,04,04,09,57,6.70
2009,04,04,09,58,6.70
2009,04,04,09,59,6.70
2009,04,04,10,00,6.70
2009,04,04,10,01,6.80
2009,04,04,10,02,6.80
2009,04,04,10,03,6.90
2009,04,04,10,04,7.00
2009,04,04,10,05,7.00
2009,04,04,10,06,7.10
2009,04,04,10,07,7.20
2009,04,04,10,08,7.20
2009,04,04,10,09,7.20
2009,04,04,10,10,7.20
2009,04,04,10,11,7.20
2009,04,04,10,12,7.30
2009,04,04,10,13,7.30
2009,04,04,10,14,7.20
2009,04,04,10,15,7.20
2009,04,04,10,16,7.20
2009,04,04,10,17,7.20
2009,04,04,10,18,7.10
2009,04,04,10,19,7.00
2009,04,04,10,20,7.00
2009,04,04,10,21,7.00
2009,04,04,10,22,7.00
2009,04,04,10,23,7.00
2009,04,04,10,24,7.10
2009,04,04,10,25,7.20
2009,04,04,10,26,7.20
2009,04,04,10,27,7.20
2009,04,04,10,28,7.10
2009,04,04,10,29,7.10
2009,04,04,10,30,7.10
2009,04,04,10,31,7.10
2009,04,04,10,32,7.10
2009,04,04,10,33,7.20
2009,04,04,10,34,7.20
2009,04,04,10,35,7.00
2009,04,04,10,36,6.90
2009,04,04,10,37,6.90
2009,04,04,10,38,6.90
2009,04,04,10,39,6.90
2009,04,04,10,40,6.90
2009,04,04,10,41,7.00
2009,04,04,10,42,7.10
2009,04,04,10,43,7.10
2009,04,04,10,44,7.10
2009,04,04,10,45,7.10
2009,04,04,10,46,7.20
2009,04,04,10,47,7.30
2009,04,04,10,48,7.40
2009,04,04,10,49,7.40
2009,04,04,10,50,7.50
2009,04,04,10,51,7.50
2009,04,04,10,52,7.40
2009,04,04,10,53,7.40
2009,04,04,10,54,7.40
2009,04,04,10,55,7.50
2009,04,04,10,56,7.60
2009,04,04,10,57,7.60
2009,04,04,10,58,7.70
2009,04,04,10,59,7.70
2009,04,04,11,00,7.70
2009,04,04,11,01,7.60
2009,04,04,11,02,7.50
2009,04,04,11,03,7.50
2009,04,04,11,04,7.40
2009,04,04,11,05,7.40
2009,04,04,11,06,7.40
2009,04,04,11,07,7.50
2009,04,04,11,08,7.50
2009,04,04,11,09,7.60
2009,04,04,11,10,7.50
2009,04,04,11,11,7.50
2009,04,04,11,12,7.40
2009,04,04,11,13,7.40
2009,04,04,11,14,7.30
2009,04,04,11,15,7.30
2009,04,04,11,16,7.20
2009,04,04,11,17,7.20
2009,04,04,11,18,7.20
2009,04,04,11,19,7.20
2009,04,04,11,20,7.20
2009,04,04,11,21,7.20
2009,04,04,11,22,7.20
2009,04,04,11,23,7.20
2009,04,04,11,24,7.30
2009,04,04,11,25,7.30
2009,04,04,11,26,7.40
2009,04,04,11,27,7.40
2009,04,04,11,28,7.40
2009,04,04,11,29,7.40
2009,04,04,11,30,7.50
2009,04,04,11,31,7.50
2009,04,04,11,32,7.50
2009,04,04,11,33,7.50
2009,04,04,11,34,7.50
2009,04,04,11,35,7.50
2009,04,04,11,36,7.50
2009,04,04,11,37,7.50
2009,04,04,11,38,7.50
2009,04,04,11,39,7.60
2009,04,04,11,40,7.70
2009,04,04,11,41,7.80
2009,04,04,11,42,7.90
2009,04,04,11,43,7.90
2009,04,04,11,44,7.90
2009,04,04,11,45,8.00
2009,04,04,11,46,8.00
2009,04,04,11,47,8.10
2009,04,04,11,48,8.10
2009,04,04,11,49,8.10
2009,04,04,11,50,8.20
2009,04,04,11,51,8.20
2009,04,04,11,52,8.20
2009,04,04,11,53,8.20
2009,04,04,11,54,8.10
2009,04,04,11,55,8.10
2009,04,04,11,56,8.10
2009,04,04,11,57,8.20
2009,04,04,11,58,8.20
2009,04,04,11,59,8.30
2009,04,04,12,00,8.30
2009,04,04,12,01,8.40
2009,04,04,12,02,8.40
2009,04,04,12,03,8.40
2009,04,04,12,04,8.40
2009,04,04,12,05,8.40
2009,04,04,12,06,8.40
2009,04,04,12,07,8.40
2009,04,04,12,08,8.40
2009,04,04,12,09,8.40
2009,04,04,12,10,8.30
2009,04,04,12,11,8.30
2009,04,04,12,12,8.30
2009,04,04,12,13,8.30
2009,04,04,12,14,8.30
2009,04,04,12,15,8.30
2009,04,04,12,16,8.30
2009,04,04,12,17,8.30
2009,04,04,12,18,8.30
2009,04,04,12,19,8.40
2009,04,04,12,20,8.40
2009,04,04,12,21,8.50
2009,04,04,12,22,8.60
2009,04,04,12,23,8.60
2009,04,04,12,24,8.60
2009,04,04,12,25,8.60
2009,04,04,12,26,8.60
2009,04,04,12,27,8.60
2009,04,04,12,28,8.60
2009,04,04,12,29,8.60
2009,04,04,12,30,8.60
2009,04,04,12,31,8.60
2009,04,04,12,32,8.60
2009,04,04,12,33,8.60
2009,04,04,12,34,8.60
2009,04,04,12,35,8.60
2009,04,04,12,36,8.60
2009,04,04,12,37,8.60
2009,04,04,12,38,8.60
2009,04,04,12,39,8.60
2009,04,04,12,40,8.70
2009,04,04,12,41,8.70
2009,04,04,12,42,8.70
2009,04,04,12,43,8.80
2009,04,04,12,44,8.90
2009,04,04,12,45,8.90
2009,04,04,12,46,9.00
2009,04,04,12,47,9.10
2009,04,04,12,48,9.10
2009,04,04,12,49,9.20
2009,04,04,12,50,9.20
2009,04,04,12,51,9.30
2009,04,04,12,52,9.30
2009,04,04,12,53,9.40
2009,04,04,12,54,9.40
2009,04,04,12,55,9.50
2009,04,04,12,56,9.50
2009,04,04,12,57,9.50
2009,04,04,12,58,9.60
2009,04,04,12,59,9.50
2009,04,04,13,00,9.50
2009,04,04,13,01,9.40
2009,04,04,13,02,9.30
2009,04,04,13,03,9.30
2009,04,04,13,04,9.30
2009,04,04,13,05,9.40
2009,04,04,13,06,9.30
2009,04,04,13,07,9.30
2009,04,04,13,08,9.30
2009,04,04,13,09,9.30
2009,04,04,13,10,9.20
2009,04,04,13,11,9.10
2009,04,04,13,12,9.00
2009,04,04,13,13,9.00
2009,04,04,13,14,9.10
2009,04,04,13,15,9.20
2009,04,04,13,16,9.20
2009,04,04,13,17,9.20
2009,04,04,13,18,9.20
2009,04,04,13,19,9.10
2009,04,04,13,20,9.10
2009,04,04,13,21,9.20
2009,04,04,13,22,9.30
2009,04,04,13,23,9.30
2009,04,04,13,24,9.30
2009,04,04,13,25,9.30
2009,04,04,13,26,9.30
2009,04,04,13,27,9.30
2009,04,04,13,28,9.30
2009,04,04,13,29,9.20
2009,04,04,13,30,9.20
2009,04,04,13,31,9.20
2009,04,04,13,32,9.20
2009,04,04,13,33,9.10
2009,04,04,13,34,9.00
2009,04,04,13,35,8.90
2009,04,04,13,36,8.90
2009,04,04,13,37,8.90
2009,04,04,13,38,9.00
2009,04,04,13,39,9.10
2009,04,04,13,40,9.20
2009,04,04,13,41,9.20
2009,04,04,13,42,9.10
2009,04,04,13,43,9.00
2009,04,04,13,44,8.90
2009,04,04,13,45,8.90
2009,04,04,13,46,9.00
2009,04,04,13,47,9.00
2009,04,04,13,48,9.10
2009,04,04,13,49,9.10
2009,04,04,13,50,9.10
2009,04,04,13,51,9.20
2009,04,04,13,52,9.20
2009,04,04,13,53,9.10
2009,04,04,13,54,9.10
2009,04,04,13,55,9.10
2009,04,04,13,56,9.00
2009,04,04,13,57,8.90
2009,04,04,13,58,8.80
2009,04,04,13,59,8.80
2009,04,04,14,00,8.80
2009,04,04,14,01,8.80
2009,04,04,14,02,8.80
2009,04,04,14,03,8.90
2009,04,04,14,04,8.90
2009,04,04,14,05,8.90
2009,04,04,14,06,8.80
2009,04,04,14,07,8.90
2009,04,04,14,08,9.00
2009,04,04,14,09,9.00
2009,04,04,14,10,9.10
2009,04,04,14,11,9.10
2009,04,04,14,12,9.20
2009,04,04,14,13,9.20
2009,04,04,14,14,9.20
2009,04,04,14,15,9.30
2009,04,04,14,16,9.40
2009,04,04,14,17,9.50
2009,04,04,14,18,9.50
2009,04,04,14,19,9.60
2009,04,04,14,20,9.50
2009,04,04,14,21,9.50
2009,04,04,14,22,9.50
2009,04,04,14,23,9.60
2009,04,04,14,24,9.60
2009,04,04,14,25,9.60
2009,04,04,14,26,9.60
2009,04,04,14,27,9.60
2009,04,04,14,28,9.60
2009,04,04,14,29,9.50
2009,04,04,14,30,9.40
2009,04,04,14,31,9.40
2009,04,04,14,32,9.40
2009,04,04,14,33,9.40
2009,04,04,14,34,9.40
2009,04,04,14,35,9.30
2009,04,04,14,36,9.30
2009,04,04,14,37,9.30
2009,04,04,14,38,9.30
2009,04,04,14,39,9.40
2009,04,04,14,40,9.40
2009,04,04,14,41,9.40
2009,04,04,14,42,9.50
2009,04,04,14,43,9.50
2009,04,04,14,44,9.60
2009,04,04,14,45,9.60
2009,04,04,14,46,9.70
2009,04,04,14,47,9.80
2009,04,04,14,48,9.80
2009,04,04,14,49,9.80
2009,04,04,14,50,9.80
2009,04,04,14,51,9.90
2009,04,04,14,52,9.90
2009,04,04,14,53,10.00
2009,04,04,14,54,9.90
2009,04,04,14,55,9.80
2009,04,04,14,56,9.80
2009,04,04,14,57,9.80
2009,04,04,14,58,9.90
2009,04,04,14,59,9.90
2009,04,04,15,00,9.90
2009,04,04,15,01,9.90
2009,04,04,15,02,9.90
2009,04,04,15,03,9.90
2009,04,04,15,04,9.90
2009,04,04,15,05,9.80
2009,04,04,15,06,9.70
2009,04,04,15,07,9.60
2009,04,04,15,08,9.60
2009,04,04,15,09,9.70
2009,04,04,15,10,9.70
2009,04,04,15,11,9.80
2009,04,04,15,12,9.90
2009,04,04,15,13,9.90
2009,04,04,15,14,9.90
2009,04,04,15,15,10.00
2009,04,04,15,16,10.10
2009,04,04,15,17,10.10
2009,04,04,15,18,10.10
2009,04,04,15,19,10.10
2009,04,04,15,20,10.10
2009,04,04,15,21,10.10
2009,04,04,15,22,10.20
2009,04,04,15,23,10.20
2009,04,04,15,24,10.20
2009,04,04,15,25,10.30
2009,04,04,15,26,10.30
2009,04,04,15,27,10.30
2009,04,04,15,28,10.30
2009,04,04,15,29,10.30
2009,04,04,15,30,10.30
2009,04,04,15,31,10.20
2009,04,04,15,32,10.10
2009,04,04,15,33,10.10
2009,04,04,15,34,10.10
2009,04,04,15,35,10.10
2009,04,04,15,36,10.10
2009,04,04,15,37,10.10
2009,04,04,15,38,10.10
2009,04,04,15,39,10.10
2009,04,04,15,40,10.10
2009,04,04,15,41,10.20
2009,04,04,15,42,10.20
2009,04,04,15,43,10.20
2009,04,04,15,44,10.10
2009,04,04,15,45,10.10
2009,04,04,15,46,10.00
2009,04,04,15,47,10.00
2009,04,04,15,48,10.10
2009,04,04,15,49,10.10
2009,04,04,15,50,10.10
2009,04,04,15,51,10.10
2009,04,04,15,52,10.10
2009,04,04,15,53,10.20
2009,04,04,15,54,10.30
2009,04,04,15,55,10.40
2009,04,04,15,56,10.40
2009,04,04,15,57,10.40
2009,04,04,15,58,10.40
2009,04,04,15,59,10.30
2009,04,04,16,00,10.30
2009,04,04,16,01,10.30
2009,04,04,16,02,10.30
2009,04,04,16,03,10.30
2009,04,04,16,04,10.30
2009,04,04,16,05,10.30
2009,04,04,16,06,10.30
2009,04,04,16,07,10.30
2009,04,04,16,08,10.30
2009,04,04,16,09,10.20
2009,04,04,16,10,10.10
2009,04,04,16,11,10.10
2009,04,04,16,12,10.00
2009,04,04,16,13,9.90
2009,04,04,16,14,9.90
2009,04,04,16,15,9.90
2009,04,04,16,16,10.00
2009,04,04,16,17,10.10
2009,04,04,16,18,10.10
2009,04,04,16,19,10.20
2009,04,04,16,20,10.20
2009,04,04,16,21,10.20
2009,04,04,16,22,10.20
2009,04,04,16,23,10.30
2009,04,04,16,24,10.30
2009,04,04,16,25,10.30
2009,04,04,16,26,10.40
2009,04,04,16,27,10.40
2009,04,04,16,28,10.40
2009,04,04,16,29,10.40
2009,04,04,16,30,10.40
2009,04,04,16,31,10.40
2009,04,04,16,32,10.40
2009,04,04,16,33,10.40
2009,04,04,16,34,10.40
2009,04,04,16,35,10.40
2009,04,04,16,36,10.50
2009,04,04,16,37,10.50
2009,04,04,16,38,10.60
2009,04,04,16,39,10.70
2009,04,04,16,40,10.80
2009,04,04,16,41,10.70
2009,04,04,16,42,10.70
2009,04,04,16,43,10.60
2009,04,04,16,44,10.50
2009,04,04,16,45,10.40
2009,04,04,16,46,10.30
2009,04,04,16,47,10.20
2009,04,04,16,48,10.20
2009,04,04,16,49,10.10
2009,04,04,16,50,10.10
2009,04,04,16,51,10.10
2009,04,04,16,52,10.10
2009,04,04,16,53,10.20
2009,04,04,16,54,10.30
2009,04,04,16,55,10.40
2009,04,04,16,56,10.50
2009,04,04,16,57,10.50
2009,04,04,16,58,10.50
2009,04,04,16,59,10.50
2009,04,04,17,00,10.50
2009,04,04,17,01,10.50
2009,04,04,17,02,10.60
2009,04,04,17,03,10.60
2009,04,04,17,04,10.60
2009,04,04,17,05,10.70
2009,04,04,17,06,10.60
2009,04,04,17,07,10.40
2009,04,04,17,08,10.30
2009,04,04,17,09,10.20
2009,04,04,17,10,10.10
2009,04,04,17,11,10.10
2009,04,04,17,12,10.10
2009,04,04,17,13,10.00
2009,04,04,17,14,9.90
2009,04,04,17,15,9.90
2009,04,04,17,16,9.90
2009,04,04,17,17,9.90
2009,04,04,17,18,9.80
2009,04,04,17,19,9.90
2009,04,04,17,20,9.90
2009,04,04,17,21,10.00
2009,04,04,17,22,10.00
2009,04,04,17,23,10.10
2009,04,04,17,24,10.10
2009,04,04,17,25,10.20
2009,04,04,17,26,10.20
2009,04,04,17,27,10.20
2009,04,04,17,28,10.20
2009,04,04,17,29,10.20
2009,04,04,17,30,10.10
2009,04,04,17,31,10.10
2009,04,04,17,32,10.10
2009,04,04,17,33,10.20
2009,04,04,17,34,10.20
2009,04,04,17,35,10.20
2009,04,04,17,36,10.20
2009,04,04,17,37,10.20
2009,04,04,17,38,10.20
2009,04,04,17,39,10.20
2009,04,04,17,40,10.20
2009,04,04,17,41,10.20
2009,04,04,17,42,10.10
2009,04,04,17,43,10.10
2009,04,04,17,44,10.10
2009,04,04,17,45,10.10
2009,04,04,17,46,10.10
2009,04,04,17,47,10.10
2009,04,04,17,48,10.10
2009,04,04,17,49,10.20
2009,04,04,17,50,10.20
2009,04,04,17,51,10.20
2009,04,04,17,52,10.20